Powrót do katalogu

RSW-01

AktywnyNaukaPO
NORAD 49112·PAYLOAD·🇨🇳 China

Wystrzelony Aug 24, 2021 z Jiuquan Satellite Launch Center

Loading…

Następne Przeloty (najbliższe 24 godziny)

TLE

ŚwieżeSource: Space-Track

Epoka: Sep 14, 2026, 14:43 UTC

1 49112U 21076A   26257.61379752 -.00000062  00000-0 -13556-3 0  9998
2 49112  86.4078 125.9011 0015130 168.2903 191.8597 13.42862809247882

Śledź RSW-01 w czasie rzeczywistym z AllMySat

Download on the App Store